Probability
30 32 35 36 35 35 35 36 35 32 30 26 22 19 13 8 6 4 3 1 0 0 0 0 0 0 0 0 0 0 0 0 0 0 0 0 1 2 2 1 0 0 1
25 27 31 33 33 31 30 30 29 27 24 22 21 18 12 6 3 2 1 1 0 0 0 0 0 0 0 0 0 0 0 0 0 0 0 0 0 1 1 1 0 0 1
22 22 24 27 28 27 26 25 26 24 23 22 20 16 10 4 2 2 1 1 0 0 0 0 0 0 0 0 0 0 0 0 0 0 0 0 0 0 0 1 0 0 1
21 20 19 20 22 24 24 24 25 25 25 23 19 14 9 5 4 3 2 1 0 0 0 0 0 0 0 0 0 0 0 0 0 0 0 0 0 0 0 0 0 0 0
19 17 17 18 19 20 20 22 24 25 24 21 18 13 8 5 4 3 3 2 0 0 0 0 0 0 0 0 0 0 0 0 0 0 0 0 0 0 0 0 0 0 0
13 14 17 18 18 18 19 21 25 26 24 21 17 13 8 5 4 3 2 1 0 0 0 0 0 0 0 0 0 0 0 0 0 0 0 0 0 0 0 0 0 0 0
9 12 15 16 16 17 20 24 25 24 21 19 16 12 8 6 3 2 1 0 0 0 0 0 0 0 0 0 0 0 0 0 0 0 0 0 0 0 0 0 0 0 0
8 10 12 12 12 14 18 22 23 19 16 16 15 13 9 5 3 2 1 0 0 0 0 0 0 0 0 0 0 0 0 0 0 0 0 0 0 0 0 0 0 0 0
7 9 10 10 9 10 13 16 17 15 12 12 13 12 9 5 3 2 1 0 0 1 1 0 0 0 0 0 0 0 0 1 1 1 1 1 1 0 0 0 0 0 0
5 8 9 9 9 9 10 12 12 11 10 10 10 9 7 5 4 2 1 0 1 1 1 0 1 1 1 1 0 0 0 1 2 2 2 2 1 1 1 1 1 2 1
4 6 9 10 12 12 12 11 10 9 9 9 9 8 6 5 4 3 2 1 1 2 1 1 2 2 1 1 0 0 0 1 1 1 1 1 1 1 2 2 3 3 3
2 5 10 13 15 16 16 13 10 8 8 8 8 8 6 4 3 3 3 3 3 3 3 2 2 1 1 0 0 0 0 0 0 0 1 2 2 3 3 3 3 3 3
2 7 13 18 19 19 18 16 12 8 7 7 7 6 4 3 2 3 4 4 3 3 3 2 1 0 0 0 0 0 0 0 0 1 3 4 4 3 3 3 3 3 3
4 11 21 25 24 23 22 20 16 12 11 11 9 5 3 2 2 3 4 4 3 2 1 1 0 0 0 0 0 0 0 1 2 4 6 7 5 3 3 3 3 3 3
7 16 30 35 33 30 29 28 25 22 20 19 15 10 7 7 6 4 3 2 1 1 0 0 0 0 0 0 0 0 1 3 5 7 8 8 6 4 3 3 2 3 3
11 20 36 47 48 44 42 42 40 37 32 27 23 19 15 13 11 7 4 2 1 1 1 0 0 0 0 0 0 0 2 6 8 8 8 7 5 3 3 2 1 1 2
18 26 42 56 60 58 57 56 52 46 40 33 27 24 21 17 13 9 6 4 3 3 3 2 2 2 2 1 0 0 1 4 6 6 6 5 4 2 2 2 1 0 1
29 35 47 58 63 64 64 61 54 47 42 36 29 26 23 19 15 13 12 13 11 9 7 5 5 5 4 1 0 0 0 2 3 3 4 4 2 1 1 1 1 0 0
38 41 46 53 62 66 67 63 55 48 43 37 30 27 25 23 21 19 21 24 22 17 13 10 10 10 8 3 0 0 0 0 1 1 2 2 1 0 0 0 0 0 0
43 45 45 51 64 73 73 70 63 54 48 42 36 33 32 31 30 30 32 32 27 21 17 14 14 14 11 5 1 0 0 0 0 0 1 1 0 0 0 0 0 0 0
47 52 56 62 74 80 79 76 71 65 58 51 45 41 39 37 37 39 41 36 29 23 20 16 15 15 12 6 1 0 0 0 1 1 0 0 0 0 0 0 0 0 0
48 57 68 76 81 82 81 78 76 72 66 59 53 50 46 38 35 40 43 39 32 25 20 15 13 13 12 7 2 0 0 0 1 1 0 0 0 0 0 0 0 0 0
49 57 69 78 80 80 79 77 75 74 70 65 60 57 51 41 36 37 38 35 30 21 14 11 10 11 13 10 4 1 0 0 1 1 0 0 0 0 0 0 0 0 0
57 62 69 74 75 75 75 74 74 73 71 68 65 61 54 45 39 35 31 27 21 14 9 8 8 9 11 10 6 3 1 1 1 0 0 0 0 0 0 0 0 0 0
61 64 67 70 72 72 71 72 73 72 70 68 64 58 50 42 36 31 24 17 11 7 6 6 5 5 5 4 3 2 1 2 1 0 0 0 0 0 0 0 0 1 1
59 61 63 66 71 71 69 71 73 71 69 68 63 53 45 38 31 25 18 10 5 3 3 3 3 2 1 0 0 0 1 1 1 0 0 0 0 0 0 0 1 2 4
Wind_Speed
9 10 11 11 12 10 10 9 8 7 6 5 4 4 4 3 3 4 5 4 3 3 2 3 2 2 2 2 2 2 2 1 0 1 2 2 4 4 3 2 1 2 3
10 11 12 11 12 12 10 9 8 8 6 5 3 3 4 3 4 4 4 4 3 2 3 3 1 2 2 2 2 2 2 2 1 1 2 1 1 1 3 3 3 2 1
13 12 13 12 13 12 12 10 9 8 6 6 4 4 3 3 4 5 3 3 3 3 3 2 2 2 1 1 1 2 2 2 2 1 1 2 2 2 1 2 2 2 2
12 12 13 13 12 12 11 9 9 8 6 5 5 6 5 3 5 4 4 4 2 3 3 3 2 2 2 2 2 3 3 3 2 1 1 1 1 1 2 1 1 2 3
13 13 13 13 12 12 11 10 9 7 6 5 5 4 4 4 4 5 5 4 3 2 3 4 3 1 2 3 3 3 3 3 3 3 3 2 0 1 1 2 1 1 1
14 13 13 13 12 12 12 11 9 8 7 6 6 4 4 4 6 5 5 4 4 3 3 4 3 2 2 3 2 2 2 2 3 3 3 3 2 2 2 2 3 2 1
14 14 15 14 13 13 13 12 11 9 8 7 6 5 5 5 5 5 4 3 4 4 4 4 2 2 2 2 1 1 2 2 3 3 3 3 3 3 2 2 3 3 3
14 15 15 14 14 14 13 13 11 10 9 7 6 6 6 5 4 3 3 2 2 5 5 4 3 2 1 1 2 1 0 1 1 2 2 2 3 3 2 2 3 3 4
17 17 17 16 14 14 13 14 12 10 9 8 7 6 5 3 5 4 2 3 3 5 5 3 3 2 2 1 1 0 1 1 1 2 2 2 2 2 2 2 2 2 3
17 17 16 15 14 14 13 14 13 11 10 9 8 8 5 5 5 4 3 3 3 4 4 3 2 2 2 1 0 2 1 1 1 1 1 2 2 3 3 2 2 2 2
17 16 15 15 14 14 14 13 13 12 10 9 7 7 7 6 6 4 4 4 4 4 3 3 2 2 2 2 1 2 1 1 1 2 1 1 2 2 3 3 3 3 2
16 17 16 16 15 14 14 13 14 13 11 9 8 7 7 7 7 6 5 5 4 4 4 3 2 2 3 2 2 3 1 1 2 2 2 2 2 2 3 3 4 3 3
16 16 15 14 14 13 13 13 13 13 12 11 10 8 8 7 6 6 6 5 5 4 4 4 3 3 2 2 2 2 2 2 2 2 2 3 3 3 3 3 4 3 5
13 14 13 13 13 12 12 13 12 13 12 11 10 9 8 8 7 6 6 6 5 5 4 4 4 3 3 3 3 3 3 3 3 3 3 3 3 4 3 4 4 4 4
15 14 14 13 13 13 12 12 12 11 11 11 10 9 9 8 7 7 7 6 6 6 5 5 4 4 4 4 3 3 4 3 3 4 4 5 5 5 4 5 3 4 3
16 15 15 14 14 13 13 12 11 11 11 11 10 10 9 9 8 7 7 7 6 5 5 5 4 5 4 4 4 2 3 3 4 4 4 5 6 8 10 10 9 7 6
16 15 15 14 12 13 12 12 11 11 11 10 10 10 10 9 9 9 8 7 7 6 5 5 5 5 4 7 6 5 3 4 5 5 5 6 6 4 4 7 10 11 13
15 15 14 14 13 12 12 11 12 12 11 11 11 11 10 10 9 8 8 8 6 6 6 6 6 5 6 9 9 7 5 6 6 7 7 6 6 7 4 5 5 6 7
11 12 14 15 14 13 13 12 13 13 13 12 11 11 11 10 10 9 8 7 6 6 6 6 6 6 6 10 10 8 5 6 8 8 8 7 7 7 7 6 6 7 7
7 10 13 14 14 14 13 13 14 13 13 13 11 10 10 10 10 9 8 7 6 6 6 6 6 7 6 10 12 11 6 6 6 6 7 9 9 8 8 6 6 8 8
5 7 9 9 11 13 13 13 13 12 12 11 10 10 10 9 8 7 7 6 7 7 7 6 6 6 7 9 13 13 7 6 6 6 5 3 5 8 10 9 8 10 9
5 7 6 7 8 11 12 12 10 9 9 9 10 9 9 10 9 7 7 6 7 7 6 6 6 5 6 8 11 15 14 10 7 6 5 3 4 7 10 9 12 14 10
4 5 6 7 7 9 10 11 9 9 9 9 8 8 8 7 6 8 8 7 6 7 7 7 7 6 5 7 13 15 15 15 9 7 9 10 11 10 9 13 15 11 8
1 3 5 7 6 6 7 7 7 8 8 8 8 7 7 7 6 5 7 7 7 8 7 6 5 4 3 2 3 5 7 9 9 8 9 12 15 14 14 12 10 9 9
3 3 4 5 6 6 6 6 6 7 7 7 7 7 7 7 6 6 5 6 5 4 4 3 2 2 2 2 2 1 1 1 1 3 5 6 7 7 6 7 7 7 7
4 4 5 5 6 6 5 4 5 6 7 7 7 7 6 6 6 6 5 5 4 4 4 3 2 1 2 3 4 4 3 3 1 2 6 7 7 8 8 7 6 6 6
Wind_Direction
160 154 157 153 148 144 144 146 148 145 143 148 154 147 146 150 133 123 118 121 115 98 69 91 92 67 76 53 32 0 316 274 311 303 287 239 203 192 185 202 214 204 203
158 157 157 155 153 150 151 149 149 150 152 151 142 141 131 137 118 107 120 125 119 116 115 80 88 75 99 68 18 15 341 337 18 336 311 298 141 237 195 183 193 194 225
163 162 162 159 156 155 159 156 152 151 153 152 145 130 128 142 133 136 142 130 122 105 73 89 59 20 67 89 28 11 359 342 330 17 353 349 23 332 155 196 165 165 184
160 161 162 161 159 157 155 147 145 145 146 153 149 153 159 151 141 138 129 129 122 131 130 112 90 36 34 52 28 54 349 338 338 4 24 82 67 341 349 324 127 182 199
160 160 157 155 154 153 152 147 142 144 148 154 147 159 150 144 132 121 125 130 128 134 122 111 101 74 62 62 44 37 8 357 7 355 352 356 348 239 252 309 327 284 230
160 155 153 153 155 155 154 149 147 148 152 158 146 148 135 129 127 133 144 162 149 138 122 121 109 94 82 79 62 24 20 25 15 353 343 349 352 349 347 334 323 316 311
160 157 156 158 160 160 155 151 152 155 160 159 151 148 137 134 139 152 160 181 152 134 114 109 107 94 91 93 74 64 36 28 13 336 341 351 341 344 349 332 325 326 309
160 162 161 161 164 160 154 152 154 158 161 157 150 149 151 164 159 157 148 165 107 117 130 127 134 125 113 89 84 339 175 93 349 333 4 323 320 345 347 333 332 320 314
164 165 165 166 167 163 160 158 158 160 160 156 151 154 162 149 127 129 147 126 109 131 129 135 138 133 121 76 51 298 20 50 335 333 352 336 326 324 323 321 315 311 313
167 166 167 168 167 164 162 159 160 161 160 157 162 160 158 139 132 146 130 107 104 100 130 143 146 145 144 150 246 279 169 202 245 254 328 329 324 340 323 312 306 298 292
170 168 168 167 166 166 164 162 162 163 166 167 169 153 157 152 152 156 147 137 138 138 153 163 165 168 178 172 209 265 241 235 285 305 309 305 303 310 319 320 315 309 307
171 168 168 167 168 167 167 166 164 167 170 167 164 160 162 162 165 166 158 154 158 167 172 171 181 208 187 184 219 260 277 273 274 283 294 294 295 304 291 302 303 304 293
171 168 166 166 168 169 167 167 168 170 170 169 170 168 168 169 172 165 159 163 172 183 182 178 193 219 214 204 215 239 265 277 278 280 283 285 290 288 288 292 290 295 300
172 168 164 165 168 170 169 169 172 171 170 171 174 172 173 172 175 173 166 174 182 189 190 191 203 217 227 223 219 222 239 253 265 272 274 274 272 272 277 279 279 288 296
176 171 167 168 170 170 169 172 173 171 171 172 175 172 173 172 176 175 174 177 187 199 193 199 206 218 229 227 215 230 246 251 257 264 264 263 257 251 254 273 287 297 293
180 178 172 171 172 173 174 175 173 171 169 174 176 170 173 175 177 178 180 182 193 205 195 201 216 224 229 162 165 212 285 292 284 279 274 273 253 236 234 244 250 253 262
182 182 178 175 174 174 173 174 173 169 171 176 177 173 177 179 180 186 185 188 194 200 199 207 221 227 199 180 183 198 245 271 275 279 276 279 285 273 248 240 240 246 248
184 181 181 177 177 175 172 173 173 172 176 180 182 178 181 184 182 188 190 190 193 196 200 212 223 228 218 195 198 203 231 256 262 263 262 260 267 273 268 275 270 259 256
181 177 181 181 176 176 174 174 178 178 182 185 186 183 183 185 185 190 191 188 190 198 205 212 220 226 218 200 202 203 236 249 255 255 254 250 249 242 237 248 262 270 271
177 175 180 181 175 174 171 176 184 183 188 188 187 184 182 185 188 189 187 187 189 201 214 222 218 222 219 204 203 204 234 254 261 262 255 248 243 241 231 239 255 265 269
168 167 171 172 169 168 168 178 185 187 186 183 182 182 181 184 185 183 180 184 193 205 216 228 226 225 221 206 204 204 224 249 266 273 275 265 244 235 234 235 247 256 266
162 163 156 153 155 161 166 176 182 177 174 177 178 178 177 189 190 180 182 190 199 208 215 225 237 234 220 214 210 209 217 234 251 264 274 268 269 263 254 248 252 257 265
154 157 152 149 153 161 169 178 177 166 167 170 170 171 176 186 182 180 188 195 202 218 226 223 225 230 223 211 211 211 220 229 238 259 273 284 282 279 268 254 252 254 252
121 147 152 151 150 153 165 171 164 162 167 172 172 171 174 185 186 186 193 203 209 216 226 230 229 229 218 200 189 205 222 232 238 255 271 274 269 263 260 263 254 238 239
93 106 121 133 140 145 155 159 153 158 167 173 173 177 187 194 192 193 205 210 212 209 213 231 237 247 245 154 145 214 250 275 300 286 268 270 270 267 260 254 250 246 241
84 92 105 118 126 132 138 149 153 157 166 172 177 186 190 191 195 196 204 209 207 173 177 185 207 238 207 191 217 231 244 245 222 264 269 272 273 275 278 279 275 266 260